Tracking 17150 objects as of 4-August-2015
HD Live streaming from Space Station

OSCAR 36 (UOSAT 12)

Track OSCAR 36 (UOSAT 12) now!
10-day predictions
OSCAR 36 (UOSAT 12) is classified as:


NORAD ID: 25693
Int'l Code: 1999-021A
Perigee: 607.8 km
Apogee: 662.0 km
Inclination: 64.6 °
Period: 97.3 minutes
Semi major axis: 7005 km
RCS: 1.4285 m2 (large)
Launch date: April 21, 1999
Source: United Kingdom (UK)

Used for email and communication services to remote areas.
Your satellite tracking list
Your tracking list is empty





NASA's NSSDC Master Catalog

Two Line Element Set (TLE):
1 25693U 99021A   15216.16477157  .00000068  00000-0  27794-4 0  9996
2 25693 064.5559 070.4300 0038666 234.5887 264.2975 14.80487607879049

Source of the keplerian elements: AFSPC

N2YO: 340